STARLINK-4538 (53430 NORAD) Tracking and Keplerian Element Data

This shows tracking and keplerian element data for the satellite.

Feedback or suggestion? Click here.




ElementValue
Catalog53430
NameSTARLINK-4538
Epoch Orbit130
Epoch Day324.91667824
Epoch Year2022
RAAN112.5898
Inclination53.213
Eccentricity0.0001195
Argument of Perigee84.1351
Mean Anonmoly270.303
Mean Motion15.08839026
Decay Rate0.00023176
L11 53430U 22097AU 22324.91667824 .00023176 00000+0 14695-2 0 9996
L22 53430 53.2130 112.5898 0001195 84.1351 270.3030 15.08839026 1304



Live tracking and technical data element details for STARLINK-4538 (NORAD 53430). STARLINK-4538 can be tracked NOW for your location showing map with azimuth and elevation plus other details from your city location.







IsCatalogInMostPopularTable: catalog: 53430, numindb: 4
Update: records affected: 1



GetName: 53430 STARLINK-4538

Hit Count: updated at: Thu, 08 Dec 2022 18:46:29 GMT